Palmer, AK

12:45 AM AKDT on September 30, 2016 (GMT -0800)
Palmer Municipal

Weather History for PAAQ - November, 2012

Change the Weather History Date:

Friday, November 2, 2012

  Actual Average Record
Temperature  
Mean Temperature 26 °F -  
Max Temperature 35 °F 33 °F 50 °F (1951)
Min Temperature 16 °F 18 °F -11 °F (1975)
Degree Days  
Heating Degree Days 40    
Moisture  
Dew Point 10 °F    
Average Humidity 53    
Maximum Humidity 77    
Minimum Humidity 27    
Precipitation  
Precipitation 0.00 in - - ()
Sea Level Pressure  
Sea Level Pressure 29.37 in    
Wind  
Wind Speed 8 mph (NE)    
Max Wind Speed 24 mph    
Max Gust Speed 37 mph    
Visibility 10 miles    
Events      
Averages and records for this station are not official NWS values.
T = Trace of Precipitation, MM = Missing Value Source: NWS Daily Summary

Daily Weather History Graph

Daily Weather History Graph

Search for Another Location

Airport or City:

Trip Planner

Search our weather history database for the weather conditions in past years. The results will help you decide how hot, cold, wet, or windy it might be!

Date:

Astronomy

Nov. 02, 2012 Rise Set
Actual Time 9:30 AM AKDT 5:48 PM AKDT
Civil Twilight 8:42 AM AKDT 6:36 PM AKDT
Nautical Twilight 7:49 AM AKDT 7:28 PM AKDT
Astronomical Twilight 6:59 AM AKDT 8:19 PM AKDT
Moon 8:02 PM AKDT (11/2) 1:41 PM AKDT (11/2)
Length of Visible Light 9h 54m
Length of Day
8h 17m
Waning Gibbous, 86% of the Moon is Illuminated
Nov 2
Waning Gibbous
Nov 6
Last Quarter
Nov 13
New
Nov 20
First Quarter
Nov 28
Full

Hourly Weather History & Observations

Time (AKDT) Temp. Windchill Dew Point Humidity Pressure Visibility Wind Dir Wind Speed Gust Speed Precip Events Conditions
12:53 AM 25.0 °F 14.8 °F 3.0 °F 39% 29.63 in 10.0 mi NE 10.4 mph 18.4 mph N/A   Clear
1:53 AM 16.0 °F - 9.0 °F 74% 29.60 in 10.0 mi Calm Calm - N/A   Partly Cloudy
2:53 AM 17.1 °F 8.7 °F 10.9 °F 77% 29.57 in 10.0 mi NE 5.8 mph - N/A   Mostly Cloudy
3:53 AM 18.0 °F - 10.9 °F 74% 29.53 in 10.0 mi Calm Calm - N/A   Clear
4:53 AM 19.9 °F 14.9 °F 10.9 °F 68% 29.49 in 10.0 mi NE 3.5 mph - N/A   Clear
5:53 AM 19.0 °F - 10.9 °F 71% 29.46 in 10.0 mi Calm Calm - N/A   Clear
6:53 AM 18.0 °F 12.7 °F 10.9 °F 74% 29.44 in 10.0 mi Variable 3.5 mph - N/A   Clear
7:53 AM 19.0 °F 13.9 °F 10.9 °F 71% 29.40 in 10.0 mi SSE 3.5 mph - N/A   Clear
8:53 AM 19.9 °F - 10.9 °F 68% 29.38 in 10.0 mi Calm Calm - N/A   Clear
9:53 AM 21.9 °F 15.7 °F 10.0 °F 60% 29.35 in 10.0 mi Variable 4.6 mph - N/A   Clear
10:53 AM 32.0 °F 19.2 °F 1.0 °F 27% 29.30 in 10.0 mi NE 23.0 mph 36.8 mph N/A   Widespread Dust
11:53 AM 25.0 °F 18.1 °F 10.9 °F 55% 29.31 in 10.0 mi SE 5.8 mph - N/A   Overcast
12:53 PM 30.9 °F 22.2 °F 5.0 °F 33% 29.29 in 10.0 mi NE 10.4 mph 24.2 mph N/A   Overcast
1:53 PM 30.0 °F 22.4 °F 7.0 °F 38% 29.26 in 10.0 mi NE 8.1 mph 23.0 mph N/A   Overcast
2:53 PM 33.1 °F 23.9 °F 10.0 °F 38% 29.25 in 10.0 mi NE 12.7 mph 18.4 mph N/A   Overcast
3:53 PM 35.1 °F 27.4 °F 7.0 °F 31% 29.23 in 10.0 mi NNE 10.4 mph - N/A   Mostly Cloudy
4:53 PM 34.0 °F 28.8 °F 10.9 °F 38% 29.25 in 10.0 mi NE 5.8 mph - N/A   Mostly Cloudy
5:53 PM 32.0 °F 22.5 °F 12.0 °F 44% 29.28 in 8.0 mi North 12.7 mph - N/A   Overcast
6:26 PM 32.0 °F 21.2 °F 15.8 °F 51% 29.29 in 9.0 mi NNE 16.1 mph 19.6 mph N/A   Overcast
6:46 PM 30.2 °F 18.1 °F 12.2 °F 47% 29.30 in 9.0 mi NNE 18.4 mph 24.2 mph 0.00 in   Overcast
6:53 PM 30.0 °F 19.5 °F 12.0 °F 47% 29.32 in 10.0 mi NNE 13.8 mph 23.0 mph 0.00 in   Overcast
7:53 PM 30.0 °F 16.3 °F 12.9 °F 49% 29.32 in 10.0 mi NNE 24.2 mph 32.2 mph N/A   Partly Cloudy
8:53 PM 28.9 °F 17.7 °F 10.9 °F 47% 29.32 in 10.0 mi NNE 15.0 mph - N/A   Clear
9:53 PM 28.0 °F 16.1 °F 10.9 °F 49% 29.34 in 10.0 mi North 16.1 mph - N/A   Clear
10:53 PM 27.0 °F 15.2 °F 9.0 °F 47% 29.35 in 10.0 mi North 15.0 mph - N/A   Clear
11:53 PM 28.0 °F 16.5 °F 10.9 °F 49% 29.35 in 10.0 mi North 15.0 mph - N/A   Clear